Flag for Canada Weather past 2 weeks in Fort Smith, Northwest Territories, Canada

Now
27 °F

Overcast.


Feels Like: 15 °F
Forecast: 26 / 30 °F
Wind: 15 mph from West

Location: Fort Smith

Current Time: Oct 24, 2014 at 9:02:24 PM

Latest Report: Oct 24, 2014 at 8:00 PM


Visibility: 12 mi

Pressure: 29.74 "Hg

Humidity: 93%

Dew point: 25 °F

Location of Fort SmithLocation

Historic Weather in Fort Smith — Graph

°F

Fort Smith temperature yesterday

Maximum temperature yesterday: 48 °F (at 12:00 AM)
Minimum temperature yesterday: 36 °F (at 11:00 PM)
Average temperature yesterday: 41 °F

Past Weeks' High & Low Weather Summary

 TemperatureHumidityPressure
High59 °F (Oct 10, 4:00 PM)100% (Oct 14, 9:00 PM)30.20 "Hg (Oct 14, 9:00 PM)
Low21 °F (Oct 16, 5:00 AM)48% (Oct 10, 4:00 PM)29.22 "Hg (Oct 11, 6:00 AM)
Average39 °F87%29.67 "Hg
* Reported Oct 9 7:00 PM — Oct 24 7:00 PM, Fort Smith, Weather by CustomWeather, © 2014

Note: Actual official high and low records may vary slightly from our data, if they occured in-between our weather recording intervals... More about our weather records

Advertising

Fort Smith weather history for previous 24 hours

 ConditionsComfort  
Time TempWeatherWind HumidityBarometerVisibility
7:00 PM
Oct 24
27 °FOvercast.15 mph93%29.73 "Hg12 mi
6:00 PM28 °FOvercast.14 mph86%29.71 "Hg12 mi
5:00 PM28 °FOvercast.15 mph86%29.70 "Hg12 mi
4:00 PM28 °FLight freezing rain. Low clouds.18 mph93%29.68 "Hg6 mi
3:00 PM28 °FLight freezing rain. Low clouds.17 mph93%29.66 "Hg6 mi
2:00 PM28 °FLow clouds.17 mph93%29.64 "Hg15 mi
1:00 PM28 °FLow clouds.18 mph93%29.62 "Hg15 mi
12:00 PM28 °FIce fog.22 mph100%29.61 "Hg6 mi
11:00 AM30 °FLow clouds.15 mph93%29.59 "Hg15 mi
10:00 AM30 °FLow clouds.17 mph93%29.58 "Hg10 mi
9:00 AM30 °FLight snow. Low clouds.15 mph93%29.56 "Hg5 mi
8:00 AM30 °FSnow flurries. Low clouds.16 mph100%29.55 "Hg3 mi
7:00 AM32 °FLight snow. Low clouds.14 mph93%29.54 "Hg4 mi
6:00 AM32 °FLight snow. Low clouds.14 mph100%29.53 "Hg4 mi
5:00 AM32 °FLight snow. Ice fog.13 mph100%29.52 "Hg4 mi
4:00 AM32 °FLight snow. Ice fog.14 mph100%29.52 "Hg4 mi
3:00 AM32 °FLight snow. Ice fog.10 mph100%29.52 "Hg3 mi
2:00 AM34 °FSleet. Fog.10 mph93%29.52 "Hg4 mi
1:00 AM34 °FLight rain. Fog.10 mph100%29.52 "Hg3 mi
12:00 AM36 °FLight rain. Fog.10 mph100%29.52 "Hg2 mi
11:00 PM
Oct 23
36 °FSprinkles. Fog.7 mph100%29.55 "Hg1 mi
10:00 PM37 °FFog.8 mph93%29.57 "Hg1 mi
9:00 PM37 °FSprinkles. Fog.10 mph100%29.55 "Hg1 mi
Weather by CustomWeather, © 2014

See weather overviewHow to use our weather pages